Voltar ao catálogo

SCOUT G-1 DEB

AtivoPO
NORAD 19181·DEBRIS·🇺🇸 United States

Lançado Apr 26, 1988 de Vandenberg Space Force Base

Loading…

Próximas Passagens (próximas 24 horas)

TLE

AtualizadoSource: Space-Track

Época: Sep 14, 2026, 13:02 UTC

1 19181U 88033G   26257.54368981  .00000086  00000-0  16042-3 0  9998
2 19181  89.8311 276.3066 0248060 223.6689 292.5110 13.22093543849102

Acompanhe SCOUT G-1 DEB em tempo real com AllMySat

Download on the App Store